Flag for Germany Weather past 2 weeks in Leutkirch im Allgäu, Baden-Württemberg, Germany

46 °F


Feels Like: 43 °F
Forecast: 39 / 45 °F
Wind: 7 mph from Southwest

Location: Kempten

Current Time: Nov 30, 2015 at 9:49:52 PM

Latest Report: Nov 30, 2015 at 9:00 PM

Visibility: 44 mi

Pressure: 30.23 "Hg (27.92 "Hg at 656m altitude)

Humidity: 62%

Dew point: 34 °F

Location of Leutkirch im AllgäuLocation

Historic Weather in Leutkirch im Allgäu — Graph


Leutkirch im Allgäu temperature yesterday

Maximum temperature yesterday: 44 °F (at 10:00 PM)
Minimum temperature yesterday: 33 °F (at 2:00 AM)
Average temperature yesterday: 38 °F

Past Weeks' High & Low Weather Summary

High65 °F (Nov 16, 1:00 PM)100% (Nov 26, 6:00 AM)30.44 "Hg (Nov 26, 6:00 AM)
Low11 °F (Nov 24, 6:00 AM)42% (Nov 16, 1:00 PM)29.44 "Hg (Nov 21, 3:00 PM)
Average40 °F80%30.04 "Hg
* Reported Nov 15 8:00 PM — Nov 30 8:00 PM, Leutkirch im Allgäu, Weather by CustomWeather, © 2015

Note: Actual official high and low records may vary slightly from our data, if they occured in-between our weather recording intervals... More about our weather records


Leutkirch im Allgäu weather history for previous 24 hours

Time TempWeatherWind HumidityBarometerVisibility
8:00 PM
Mon, Nov 30
47 °FOvercast.7 mph62%30.24 "Hg43 mi
7:00 PM47 °FOvercast.7 mph63%30.26 "Hg43 mi
6:00 PM47 °FOvercast.6 mph63%30.26 "Hg43 mi
5:00 PM47 °FOvercast.7 mph64%30.27 "Hg43 mi
3:00 PM47 °FOvercast.6 mph69%30.29 "Hg43 mi
2:00 PM46 °FOvercast.2 mph69%30.30 "Hg43 mi
1:00 PM46 °FOvercast.5 mph73%30.32 "Hg43 mi
12:00 PM45 °FLight rain. Partly sunny.6 mph77%30.33 "Hg34 mi
11:00 AM44 °FLight rain. Overcast.5 mph84%30.35 "Hg14 mi
10:00 AM43 °FLight rain. Overcast.5 mph88%30.35 "Hg6 mi
9:00 AM44 °FLight rain. Overcast.8 mph81%30.33 "Hg6 mi
8:00 AM44 °FLight freezing rain. Overcast.10 mph80%30.30 "Hg12 mi
7:00 AM45 °FLight freezing rain. Overcast.8 mph74%30.28 "Hg17 mi
5:00 AM45 °FOvercast.6 mph73%30.27 "Hg43 mi
4:00 AM46 °FOvercast.8 mph70%30.26 "Hg40 mi
3:00 AM45 °FLight freezing rain. Overcast.6 mph73%30.23 "Hg17 mi
1:00 AM44 °FOvercast.5 mph75%30.26 "Hg43 mi
10:00 PM
Sun, Nov 29
44 °FLight freezing rain. Overcast.8 mph75%30.23 "Hg12 mi
9:00 PM44 °FOvercast.6 mph76%30.23 "Hg43 mi
Weather by CustomWeather, © 2015

See weather overviewHow to use our weather pages